[[{"header":{"parameterUnit":"m.s-1","parameterCategory":1,"la1":30.2991,"la2":30.254,"lo1":-89.0895,"lo2":-89.0444,"dy":0.0017,"dx":0.0017,"nx":28,"ny":28,"refTime":"2023-10-02T09:00:00:Z","depth":0,"parameterNumber":2,"parameterNumberName":"U-component_of_WINDS"},"data":[0,0,0,0,0,0,0,0,0,0,0,0,0,0,0,0,0,0,0,0,0,0,0,0,0,0,0,0,0,0,0,0,0,0,0,0,0,0,0,0,0,0,0,0,0,0,0,0,0,0,0,0,0,0,0,0,0,0,-4.0336,-4.0337,0,-4.038,-4.0381,-4.0381,-4.029,-4.0287,-4.0284,-4.0281,-4.0323,-4.0327,-4.0331,0,0,0,0,0,0,0,0,0,0,0,0,0,-4.0169,-4.0173,-4.0336,-4.0337,-4.0337,-4.038,-4.0381,-4.0381,-4.029,-4.0286,-4.0283,-4.0279,-4.0322,-4.0327,-4.0331,0,0,0,0,0,0,0,0,0,0,0,0,0,-4.023,-4.0174,-4.0336,-4.0297,-4.0294,-4.038,-4.0381,-4.0382,-4.0291,-4.0286,-4.0282,-4.0278,-4.0321,-4.0326,-4.0332,-4.0458,0,0,-4.035,-4.0352,0,0,0,0,0,0,0,0,-4.0227,-4.0237,-4.0302,-4.03,-4.0296,-4.0325,-4.0337,-4.0407,-4.0292,-4.0292,-4.0281,-4.0275,-4.0327,-4.0332,-4.035,-4.046,-4.0461,-4.035,-4.0354,-4.0357,-4.0358,0,0,0,0,0,0,0,-4.0223,-4.0234,-4.0353,-4.0303,-4.03,-4.0276,-4.028,-4.035,-4.0334,-4.0292,-4.0285,-4.0292,-4.0325,-4.0345,-4.0351,-4.0462,-4.035,-4.0355,-4.0359,-4.0361,-4.0674,-4.0679,0,0,0,0,0,0,-4.0224,-4.0231,-4.0352,-4.0355,-4.025,-4.0283,-4.0287,-4.032,-4.0333,-4.0331,-4.0295,-4.0287,-4.0337,-4.0344,-4.0352,-4.0498,-4.0356,-4.0362,-4.0365,-4.067,-4.0675,-4.0681,0,0,0,0,0,0,-4.0221,-4.0236,-4.035,-4.0291,-4.0304,-4.029,-4.0329,-4.0323,-4.0343,-4.0336,-4.0332,-4.0319,-4.0334,-4.0344,-4.0432,-4.0498,-4.0365,-4.037,-4.0664,-4.0671,-4.0678,-4.0792,0,0,0,0,0,0,-4.0216,-4.0235,-4.0284,-4.0293,-4.0308,-4.0431,-4.0333,-4.0328,-4.0354,-4.0344,-4.0357,-4.0355,-4.0331,-4.0423,-4.0438,-4.0504,-4.0375,-4.0658,-4.0667,-4.0676,-4.0783,-4.0803,-4.082,0,0,0,0,0,-4.0211,-4.0314,-4.0287,-4.0302,-4.0368,-4.0435,-4.0443,-4.0414,-4.036,-4.0408,-4.0403,-4.0355,-4.0489,-4.0433,-4.0448,-4.0517,-4.0653,-4.0665,-4.0675,-4.0774,-4.0799,-4.0819,0,0,0,0,0,0,-4.0312,-4.0314,-4.0284,-4.0394,-4.0415,-4.0419,-4.0479,-4.0441,-4.0477,-4.0466,-4.0428,-4.0432,-4.0527,-4.0531,-4.0469,-4.0639,-4.0562,-4.0576,-4.0632,-4.0655,-4.0674,-4.067,-4.0379,0,0,0,0,0,-4.0347,-4.0402,-4.0401,-4.0498,-4.051,-4.0493,-4.0521,-4.0497,-4.0517,-4.0525,-4.0526,-4.0547,-4.0593,-4.0625,-4.0667,-4.0783,-4.0784,-4.0838,-4.0857,-4.0872,-4.0884,-4.0944,-4.0967,-4.0716,-4.0716,-4.0716,0,0,-4.042,-4.0428,-4.0465,-4.0518,-4.0532,-4.0588,-4.0501,-4.0565,-4.0606,-4.0534,-4.0617,-4.0619,-4.0639,-4.0742,-4.0787,-4.0748,-4.0954,-4.0886,-4.0898,-4.0902,-4.0957,-4.0981,-4.1002,-4.0723,-4.0722,-4.0721,0,0,-4.0581,-4.0594,-4.0675,-4.069,-4.0712,-4.07,-4.072,-4.073,-4.0729,-4.0812,-4.0759,-4.0806,-4.0888,-4.0904,-4.0923,-4.109,-4.1046,-4.1105,-4.1201,-4.126,-4.128,-4.1297,-4.1355,-4.1376,-4.1117,-4.1118,-4.1118,0,-4.0669,-4.0753,-4.0721,-4.0788,-4.0812,-4.0751,-4.0832,-4.0848,-4.0883,-4.09,-4.0857,-4.0957,-4.0966,-4.107,-4.1111,-4.1129,-4.1149,-4.1102,-4.128,-4.1297,-4.1312,-4.1367,-4.1389,-4.1125,-4.1124,-4.1123,-4.1122,0,-4.0858,-4.0917,-4.098,-4.1015,-4.1046,-4.112,-4.1098,-4.1134,-4.1107,-4.1099,-4.1183,-4.1193,-4.1235,-4.1258,-4.1233,-4.1359,-4.1334,-4.1286,-4.1208,-4.1344,-4.1394,-4.1415,-4.1134,-4.1132,-4.113,-4.1128,0,0,-4.1084,-4.11,-4.1124,-4.1138,-4.1157,-4.1202,-4.1272,-4.1314,-4.1344,-4.137,-4.1427,-4.1498,-4.1453,-4.1474,-4.145,-4.1502,-4.1631,-4.1447,-4.1447,-4.1479,-4.1768,-4.1803,-4.1828,-4.1603,-4.1607,-4.161,-4.1766,0,-4.1242,-4.1363,-4.1337,-4.1456,-4.1509,-4.1451,-4.1512,-4.153,-4.1525,-4.1568,-4.1561,-4.1611,-4.155,-4.1562,-4.1611,-4.1605,-4.1688,-4.1594,-4.1654,-4.1656,-4.1649,-4.1854,-4.1891,-4.2038,-4.1785,-4.1789,-4.1791,0,-4.1443,-4.1476,-4.1601,-4.161,-4.1631,-4.1687,-4.1723,-4.1766,-4.1784,-4.1776,-4.18,-4.1766,-4.1834,-4.1756,-4.1849,-4.1785,-4.1808,-4.1809,-4.1814,-4.1817,-4.1731,-4.1861,-4.2084,-4.2105,-4.1822,-4.182,-4.1818,0,-4.1592,-4.1669,-4.1752,-4.1767,-4.1781,-4.1821,-4.1828,-4.1842,-4.1869,-4.19,-4.1917,-4.1956,-4.1976,-4.2007,-4.1983,-4.1929,-4.2079,-4.2,-4.2072,-4.2073,-4.2105,-4.2103,-4.2333,-4.2124,-4.2123,-4.2123,-4.2122,0,-4.177,-4.1849,-4.182,-4.1871,-4.1956,-4.1925,-4.2009,-4.201,-4.2023,-4.2072,-4.2025,-4.2073,-4.2039,-4.2084,-4.2066,-4.2144,-4.2154,-4.2148,-4.2142,-4.2152,-4.2152,-4.2165,-4.2153,-4.2129,-4.2127,-4.2126,-4.2125,0,-4.1951,-4.1936,-4.2023,-4.2029,-4.2032,-4.2094,-4.2098,-4.2146,-4.2137,-4.22,-4.2213,-4.2199,-4.2248,-4.2228,-4.228,-4.2268,-4.2368,-4.2349,-4.2362,-4.2356,-4.2429,-4.2422,-4.2674,-4.2705,-4.2477,-4.248,-4.2481,0,-4.2065,-4.2124,-4.2136,-4.2166,-4.2177,-4.2226,-4.2253,-4.2224,-4.2254,-4.2279,-4.2323,-4.2368,-4.2403,-4.2484,-4.2478,-4.2517,-4.2498,-4.2584,-4.2504,-4.2511,-4.2497,-4.2493,-4.2498,-4.2599,-4.2602,-4.2604,-4.2606,0,-4.2269,-4.2258,-4.2299,-4.2338,-4.2371,-4.24,-4.2424,-4.2451,-4.2423,-4.2459,-4.2509,-4.2536,-4.2589,-4.2634,-4.2669,-4.2675,-4.2636,-4.2631,-4.265,-4.2659,-4.2663,-4.266,-4.2403,-4.2625,-4.2623,-4.2622,-4.2621,-4.262,-4.2419,-4.2467,-4.2483,-4.253,-4.2545,-4.2569,-4.2613,-4.261,-4.2651,-4.2693,-4.2673,-4.2731,-4.2746,-4.2789,-4.2801,-4.2845,-4.2811,-4.2838,-4.2845,-4.2852,-4.286,-4.2658,-4.2851,-4.285,-4.285,-4.2849,-4.2849,0,-4.2618,-4.2625,-4.2669,-4.2704,-4.2741,-4.2702,-4.2726,-4.2759,-4.2811,-4.2829,-4.2864,-4.2921,-4.2964,-4.2962,-4.3001,-4.3037,-4.302,-4.3048,-4.3044,-4.3046,-4.2889,-4.2868,-4.3061,-4.3061,-4.3061,-4.3061,-4.3061,-4.3061,-4.2726,-4.2806,-4.2797,-4.2883,-4.2889,-4.2946,-4.2963,-4.2984,-4.2998,-4.3064,-4.31,-4.3098,-4.3108,-4.3148,-4.3185,-4.3183,-4.3199,-4.3234,-4.3225,-4.3078,-4.3057,-4.3037,-4.3017,-4.3238,-4.3239,-4.3378,-4.3379,-4.338]},{"header":{"parameterUnit":"m.s-1","parameterCategory":1,"la1":30.2991,"la2":30.254,"lo1":-89.0895,"lo2":-89.0444,"dy":0.0017,"dx":0.0017,"nx":28,"ny":28,"refTime":"2023-10-02T09:00:00:Z","depth":0,"parameterNumber":3,"parameterNumberName":"V-component_of_WINDS"},"data":[0,0,0,0,0,0,0,0,0,0,0,0,0,0,0,0,0,0,0,0,0,0,0,0,0,0,0,0,0,0,0,0,0,0,0,0,0,0,0,0,0,0,0,0,0,0,0,0,0,0,0,0,0,0,0,0,0,0,1.7414,1.7414,0,1.7396,1.7395,1.7395,1.736,1.7359,1.7359,1.7358,1.7338,1.7338,1.7338,0,0,0,0,0,0,0,0,0,0,0,0,0,1.7419,1.7419,1.7414,1.7414,1.7414,1.7396,1.7395,1.7395,1.736,1.7359,1.7359,1.7358,1.7338,1.7338,1.7338,0,0,0,0,0,0,0,0,0,0,0,0,0,1.7411,1.7419,1.7414,1.7394,1.7392,1.7396,1.7395,1.7395,1.736,1.7359,1.7358,1.7357,1.7338,1.7338,1.7338,1.736,0,0,1.7339,1.7339,0,0,0,0,0,0,0,0,1.7411,1.741,1.7397,1.7395,1.7393,1.7379,1.739,1.7383,1.7361,1.7372,1.7358,1.7357,1.7353,1.7352,1.735,1.7359,1.7358,1.7339,1.7339,1.7339,1.7339,0,0,0,0,0,0,0,1.7412,1.7411,1.7407,1.7397,1.7395,1.7386,1.7384,1.7388,1.7368,1.7371,1.7369,1.7367,1.7351,1.735,1.735,1.7358,1.7339,1.7339,1.7339,1.7339,1.7384,1.7385,0,0,0,0,0,0,1.7415,1.7412,1.7407,1.7406,1.74,1.7387,1.7384,1.7385,1.7368,1.7365,1.7368,1.7366,1.735,1.7349,1.7349,1.7372,1.7339,1.7339,1.7339,1.7382,1.7384,1.7385,0,0,0,0,0,0,1.7416,1.7415,1.7408,1.7408,1.7407,1.7388,1.7389,1.7385,1.7384,1.7366,1.7362,1.737,1.735,1.7348,1.7357,1.7371,1.7339,1.7339,1.7381,1.7383,1.7384,1.742,0,0,0,0,0,0,1.7416,1.7416,1.7423,1.7409,1.7407,1.7417,1.739,1.7385,1.7384,1.7381,1.7367,1.7364,1.7349,1.7357,1.7358,1.7371,1.734,1.738,1.7382,1.7384,1.7418,1.7423,1.7427,0,0,0,0,0,1.7416,1.7434,1.7424,1.7423,1.7416,1.7418,1.7417,1.7399,1.7385,1.7393,1.7382,1.7364,1.737,1.7359,1.7359,1.7372,1.7379,1.7381,1.7384,1.7416,1.7422,1.7427,0,0,0,0,0,0,1.745,1.7431,1.742,1.7434,1.7428,1.7412,1.7421,1.7407,1.7404,1.7401,1.7379,1.7377,1.7388,1.7381,1.7369,1.7392,1.7372,1.7374,1.7396,1.7402,1.7407,1.7407,1.734,0,0,0,0,0,1.7459,1.7462,1.7446,1.7459,1.7457,1.744,1.744,1.7427,1.742,1.7417,1.7406,1.74,1.7401,1.7401,1.74,1.7417,1.7414,1.7427,1.7431,1.7436,1.7437,1.7446,1.7451,1.7393,1.7393,1.7393,0,0,1.7477,1.7468,1.7471,1.7466,1.746,1.7463,1.7438,1.7443,1.7445,1.7418,1.7425,1.7418,1.7409,1.7422,1.7428,1.7417,1.7453,1.7439,1.7442,1.7442,1.7449,1.7455,1.746,1.7395,1.7394,1.7394,0,0,1.7513,1.7506,1.7516,1.7511,1.7503,1.7491,1.7494,1.7481,1.7475,1.7483,1.7463,1.7466,1.7467,1.7461,1.7459,1.7495,1.7478,1.7495,1.752,1.7528,1.7533,1.7537,1.7549,1.7554,1.7498,1.7498,1.7498,0,1.7536,1.7541,1.7524,1.753,1.7528,1.7505,1.7516,1.7511,1.7503,1.7503,1.7491,1.7493,1.7485,1.7497,1.7506,1.7505,1.7507,1.7496,1.7534,1.7537,1.7541,1.7552,1.7557,1.75,1.7499,1.7499,1.7499,0,1.7571,1.7575,1.7584,1.7577,1.7577,1.7586,1.7569,1.7571,1.7559,1.755,1.7558,1.7549,1.7546,1.7548,1.7536,1.7559,1.7552,1.7538,1.7516,1.7549,1.7559,1.7563,1.7503,1.7502,1.7501,1.7501,0,0,1.7624,1.7609,1.7613,1.761,1.7599,1.7602,1.761,1.7608,1.761,1.7606,1.7611,1.7614,1.7601,1.7598,1.7586,1.7593,1.7622,1.7578,1.7577,1.7586,1.7646,1.7656,1.7661,1.7612,1.7613,1.7613,1.7646,0,1.7657,1.7669,1.7654,1.767,1.7673,1.7652,1.7659,1.7653,1.7645,1.7647,1.7637,1.7639,1.7622,1.762,1.7627,1.7617,1.7633,1.7615,1.7617,1.7617,1.7618,1.7666,1.7677,1.7708,1.765,1.7651,1.7651,0,1.7695,1.7693,1.7709,1.7699,1.77,1.7706,1.7703,1.7706,1.7699,1.7693,1.7691,1.7676,1.7684,1.7665,1.7674,1.7662,1.7662,1.7657,1.7658,1.7656,1.7635,1.7665,1.7717,1.7722,1.7658,1.7657,1.7657,0,1.7732,1.7734,1.7743,1.7741,1.773,1.7735,1.773,1.7723,1.7723,1.7721,1.7721,1.772,1.7719,1.7718,1.7704,1.7692,1.7716,1.7695,1.771,1.771,1.7714,1.7714,1.7766,1.7717,1.7717,1.7717,1.7717,0,1.7768,1.7779,1.776,1.7765,1.7777,1.776,1.7772,1.7765,1.776,1.7764,1.7746,1.775,1.7732,1.7735,1.7724,1.7733,1.7733,1.7728,1.7725,1.7729,1.7729,1.7727,1.7724,1.7718,1.7718,1.7717,1.7717,0,1.781,1.7798,1.7807,1.7796,1.7794,1.7802,1.7793,1.7798,1.7789,1.7795,1.7795,1.7781,1.7783,1.777,1.777,1.7762,1.7777,1.777,1.7779,1.7776,1.7791,1.779,1.7843,1.7849,1.7797,1.7798,1.7798,0,1.7834,1.7841,1.7831,1.7833,1.783,1.7833,1.7833,1.7818,1.7819,1.7813,1.7819,1.782,1.782,1.7825,1.7814,1.7814,1.7807,1.7826,1.7807,1.7811,1.7806,1.7805,1.7806,1.7829,1.783,1.783,1.7831,0,1.7876,1.787,1.7871,1.7871,1.7872,1.787,1.7868,1.787,1.7854,1.7856,1.7859,1.7859,1.7859,1.786,1.7858,1.7853,1.7839,1.7838,1.7841,1.7844,1.7848,1.7845,1.7788,1.7836,1.7835,1.7835,1.7835,1.7834,1.7909,1.7915,1.7909,1.7911,1.7908,1.7906,1.7911,1.7903,1.7905,1.7904,1.7895,1.7899,1.7894,1.789,1.7887,1.789,1.7881,1.7886,1.7887,1.7888,1.789,1.7849,1.789,1.789,1.789,1.7889,1.7889,0,1.795,1.7945,1.7948,1.7945,1.7947,1.7935,1.7932,1.7934,1.7938,1.7935,1.7935,1.7938,1.794,1.7931,1.7931,1.7935,1.7929,1.7936,1.7934,1.7933,1.7899,1.7895,1.7941,1.7941,1.7941,1.7941,1.7941,1.7941,1.7971,1.7981,1.7974,1.7982,1.7978,1.7982,1.7981,1.798,1.7977,1.7981,1.7982,1.7977,1.7971,1.7971,1.7972,1.7969,1.797,1.7979,1.7974,1.7941,1.7936,1.7931,1.7928,1.7979,1.7979,1.8008,1.8008,1.8008]}]]